KB1GNF Weather Reports


Display with metric or nautical units.
time (UTC)temp
F
wind
direction
speed
MPH
gust
MPH
rain 1hr
in
rain 24hr
in
rain mn
in
humidity
%
barometer
mb
20260902052512 61 210 0.0 0.0 0.00 0.39 0.00 97 1020.5
20260902052011 61 210 0.0 0.0 0.00 0.39 0.00 97 1020.5
20260902051526 61 210 0.0 0.0 0.00 0.39 0.00 97 1020.5
20260902051015 61 210 0.0 0.0 0.00 0.39 0.00 97 1020.5
20260902050515 61 212 0.0 0.0 0.00 0.39 0.00 97 1020.5
20260902050052 61 243 0.0 0.0 0.00 0.39 0.00 97 1020.5
20260902045515 61 243 0.0 0.0 0.00 0.39 0.00 97 1020.6
20260902045007 61 243 0.0 0.0 0.00 0.39 0.00 97 1020.6
20260902044517 61 243 0.0 0.0 0.00 0.39 0.00 96 1020.5
20260902044009 61 243 0.0 0.0 0.00 0.39 0.00 96 1020.5
20260902043510 61 243 0.0 0.0 0.00 0.39 0.00 97 1020.3
20260902043032 61 243 0.0 0.0 0.00 0.39 0.00 97 1020.2
20260902042513 61 243 0.0 0.0 0.00 0.39 0.00 96 1020.2
20260902042014 61 243 0.0 0.0 0.00 0.39 0.00 96 1020.1
20260902041528 61 243 0.0 0.0 0.00 0.39 0.00 96 1020.1
20260902041016 61 243 0.0 0.0 0.00 0.39 0.00 96 1020.0
20260902040515 61 243 0.0 0.0 0.00 0.39 0.00 96 1019.8
20260902040030 61 243 0.0 0.0 0.00 0.39 0.00 96 1019.7
20260902035516 61 243 0.0 0.0 0.00 0.39 0.39 96 1019.6
20260902035013 61 243 0.0 0.0 0.00 0.39 0.39 96 1019.6
20260902034530 61 243 0.0 0.0 0.00 0.39 0.39 96 1019.5
20260902034013 61 243 0.0 0.0 0.00 0.39 0.39 96 1019.4
20260902033508 61 243 0.0 0.0 0.00 0.39 0.39 96 1019.3
20260902033016 62 243 0.0 0.0 0.00 0.39 0.39 95 1019.2
20260902032510 62 243 0.0 0.0 0.00 0.39 0.39 95 1019.3
20260902032014 62 243 0.0 0.0 0.00 0.39 0.39 95 1019.4
20260902031526 62 243 0.0 0.0 0.00 0.39 0.39 95 1019.5
20260902031017 62 243 0.0 0.0 0.00 0.39 0.39 95 1019.5
20260902030511 62 243 0.0 0.0 0.00 0.39 0.39 95 1019.5
20260902030030 62 243 0.0 0.0 0.00 0.39 0.39 95 1019.5
20260902025516 62 243 0.0 0.0 0.00 0.39 0.39 94 1019.6
20260902025016 62 243 0.0 0.0 0.00 0.39 0.39 94 1019.4
20260902024531 62 243 0.0 0.0 0.00 0.39 0.39 94 1019.5
20260902024016 62 245 0.0 0.0 0.00 0.39 0.39 94 1019.5
20260902023516 63 246 0.0 0.0 0.00 0.39 0.39 94 1019.6
20260902023029 63 246 0.0 0.0 0.00 0.39 0.39 94 1019.7
20260902022516 63 246 0.0 0.0 0.00 0.39 0.39 94 1019.7
20260902022010 63 246 0.0 0.0 0.00 0.39 0.39 93 1019.7
20260902021523 63 246 0.0 0.0 0.00 0.39 0.39 93 1019.6
20260902021012 63 246 0.0 0.0 0.00 0.39 0.39 91 1019.5
20260902020512 63 247 0.0 0.0 0.00 0.39 0.39 92 1019.4
20260902020026 63 160 0.0 1.0 0.00 0.39 0.39 91 1019.6
20260902015515 63 237 0.0 2.0 0.00 0.39 0.39 91 1019.9
20260902015013 63 194 1.0 2.0 0.00 0.39 0.39 91 1019.7
20260902014530 63 212 0.0 3.0 0.00 0.39 0.39 91 1019.6
20260902014016 63 201 0.0 3.0 0.00 0.39 0.39 91 1019.6
20260902013516 63 205 1.0 3.0 0.00 0.39 0.39 92 1019.6
20260902013038 63 245 0.0 0.0 0.00 0.39 0.39 92 1019.6
20260902012514 63 76 0.0 2.0 0.00 0.39 0.39 91 1019.6
20260902012014 63 76 0.0 2.0 0.00 0.39 0.39 91 1019.6
20260902011536 63 99 0.0 2.0 0.00 0.39 0.39 92 1019.6
20260902011012 63 103 0.0 2.0 0.00 0.39 0.39 93 1019.6
20260902010509 63 270 0.0 2.0 0.00 0.39 0.39 93 1019.6
20260902010029 64 221 0.0 0.0 0.00 0.39 0.39 94 1019.4
20260902005513 64 221 0.0 1.0 0.00 0.39 0.39 94 1019.2
20260902005013 63 215 0.0 1.0 0.00 0.39 0.39 94 1019.1
20260902004504 63 175 0.0 2.0 0.00 0.39 0.39 95 1019.1
20260902004003 63 39 0.0 2.0 0.00 0.39 0.39 95 1019.1
20260902003503 64 205 0.0 0.0 0.00 0.39 0.39 95 1018.9
20260902003016 64 205 0.0 0.0 0.00 0.39 0.39 95 1018.7
20260902002505 64 154 0.0 0.0 0.00 0.39 0.39 95 1018.7
20260902002006 64 154 0.0 0.0 0.00 0.39 0.39 95 1018.7
20260902001517 64 154 0.0 0.0 0.00 0.39 0.39 95 1018.8
20260902001008 64 154 0.0 0.0 0.00 0.39 0.39 95 1018.9
20260902000512 64 154 0.0 0.0 0.00 0.39 0.39 94 1018.9
20260902000023 64 154 0.0 1.0 0.00 0.39 0.39 94 1018.7
20260901235512 64 154 0.0 1.0 0.00 0.39 0.39 93 1018.6
20260901235015 64 179 0.0 1.0 0.00 0.39 0.39 93 1018.5
20260901234525 64 205 0.0 0.0 0.00 0.39 0.39 93 1018.4
20260901234014 64 205 0.0 2.0 0.00 0.39 0.39 93 1018.6
20260901233514 64 205 0.0 2.0 0.00 0.39 0.39 93 1018.6
20260901233007 64 216 1.0 2.0 0.00 0.39 0.39 92 1018.5
20260901232504 64 192 1.0 2.0 0.00 0.39 0.39 92 1018.5
20260901232004 64 172 1.0 2.0 0.00 0.39 0.39 93 1018.5
20260901231528 64 178 0.0 3.0 0.00 0.39 0.39 93 1018.5
20260901231004 64 218 1.0 3.0 0.00 0.39 0.39 93 1018.4
20260901230508 64 150 1.0 3.0 0.00 0.39 0.39 93 1018.4
20260901230018 65 208 0.0 0.0 0.00 0.39 0.39 94 1018.6
20260901225510 65 208 0.0 0.0 0.00 0.39 0.39 93 1018.8
20260901225012 65 205 0.0 2.0 0.00 0.39 0.39 93 1018.7
20260901224534 65 216 0.0 2.0 0.00 0.39 0.39 93 1018.5
20260901224014 65 189 1.0 2.0 0.00 0.39 0.39 93 1018.5
20260901223514 65 211 0.0 1.0 0.00 0.39 0.39 93 1018.5
20260901223028 65 205 0.0 1.0 0.00 0.39 0.39 93 1018.5
20260901222516 65 205 0.0 2.0 0.00 0.39 0.39 93 1018.4
20260901222018 65 236 0.0 2.0 0.00 0.39 0.39 93 1018.3
20260901221531 65 199 1.0 2.0 0.00 0.39 0.39 93 1018.2
20260901221006 66 167 0.0 1.0 0.00 0.39 0.39 93 1018.2
20260901220505 66 11 0.0 1.0 0.00 0.39 0.39 92 1018.2
20260901220014 66 11 0.0 1.0 0.00 0.39 0.39 91 1018.1
20260901215507 66 72 0.0 1.0 0.00 0.39 0.39 89 1018.1
20260901215012 66 72 0.0 2.0 0.00 0.39 0.39 89 1017.9
20260901214530 66 43 0.0 2.0 0.00 0.39 0.39 90 1018.0
20260901214010 66 82 0.0 2.0 0.00 0.39 0.39 91 1018.0
20260901213512 65 131 0.0 1.0 0.00 0.39 0.39 91 1017.9
20260901213040 65 146 0.0 3.0 0.00 0.39 0.39 92 1017.8
20260901212514 65 69 0.0 3.0 0.00 0.39 0.39 92 1017.9
20260901212014 66 267 0.0 1.0 0.00 0.39 0.39 93 1018.0
20260901211531 66 243 0.0 0.0 0.00 0.39 0.39 92 1018.0
20260901211015 66 180 0.0 1.0 0.00 0.39 0.39 92 1018.0
20260901210516 66 180 0.0 2.0 0.00 0.39 0.39 90 1018.0
20260901210033 66 220 0.0 2.0 0.00 0.39 0.39 90 1018.0
20260901205507 67 210 0.0 1.0 0.00 0.39 0.39 90 1018.0
20260901205007 67 222 0.0 5.0 0.00 0.39 0.39 89 1018.0
20260901204535 67 210 1.0 5.0 0.00 0.39 0.39 89 1017.8
20260901204006 67 62 0.0 4.0 0.00 0.39 0.39 90 1017.8
20260901203508 67 211 0.0 2.0 0.00 0.39 0.39 90 1017.7
20260901203033 67 151 0.0 2.0 0.00 0.39 0.39 90 1017.7
20260901202512 67 207 1.0 2.0 0.00 0.39 0.39 90 1017.6
20260901202014 67 316 0.0 2.0 0.00 0.39 0.39 90 1017.5
20260901201529 67 219 0.0 2.0 0.00 0.39 0.39 91 1017.4
20260901201016 67 203 0.0 2.0 0.00 0.39 0.39 91 1017.2
20260901200516 67 215 0.0 4.0 0.00 0.39 0.39 93 1017.1
20260901200031 67 153 2.0 4.0 0.00 0.39 0.39 93 1017.1
20260901195517 67 177 2.0 4.0 0.00 0.39 0.39 93 1017.1
20260901195016 67 198 0.0 0.0 0.00 0.39 0.39 94 1017.1
20260901194538 67 68 0.0 0.0 0.01 0.39 0.39 95 1017.1
20260901194008 67 68 0.0 1.0 0.01 0.39 0.39 94 1017.1
20260901193508 67 103 0.0 1.0 0.01 0.39 0.39 95 1017.1
20260901193020 67 302 0.0 1.0 0.02 0.39 0.39 95 1017.2
20260901192511 67 302 0.0 1.0 0.02 0.39 0.39 95 1017.2
20260901192009 67 333 0.0 0.0 0.02 0.39 0.39 95 1017.0
20260901191525 67 79 0.0 0.0 0.02 0.39 0.39 96 1017.1
20260901191003 67 16 0.0 0.0 0.03 0.39 0.39 96 1017.1
20260901190503 67 16 0.0 0.0 0.03 0.39 0.39 96 1017.1
20260901190007 67 16 0.0 0.0 0.03 0.39 0.39 96 1017.2
20260901185505 67 16 0.0 0.0 0.03 0.39 0.39 96 1017.2
20260901185004 67 16 0.0 0.0 0.04 0.39 0.39 96 1017.2
20260901184526 67 346 0.0 0.0 0.03 0.38 0.38 96 1017.2
20260901184009 67 346 0.0 0.0 0.03 0.38 0.38 96 1017.3
20260901183508 67 346 0.0 0.0 0.04 0.38 0.38 96 1017.4
20260901183018 67 345 0.0 0.0 0.04 0.37 0.37 96 1017.4
20260901182509 67 343 0.0 0.0 0.06 0.37 0.37 96 1017.4
20260901182010 67 343 0.0 0.0 0.11 0.37 0.37 96 1017.4
20260901181540 67 351 0.0 0.0 0.14 0.37 0.37 96 1017.4
20260901181012 67 347 0.0 0.0 0.14 0.36 0.36 96 1017.4
20260901180505 67 353 0.0 0.0 0.14 0.36 0.36 96 1017.4
20260901180005 67 345 0.0 0.0 0.14 0.36 0.36 95 1017.2
20260901175508 67 348 0.0 0.0 0.14 0.36 0.36 95 1017.1
20260901175003 67 43 0.0 0.0 0.13 0.35 0.35 95 1017.1
20260901174528 67 44 0.0 1.0 0.13 0.35 0.35 96 1017.1
20260901174006 67 44 0.0 1.0 0.13 0.35 0.35 95 1016.9
20260901173504 67 356 0.0 1.0 0.12 0.34 0.34 95 1017.0
20260901173011 67 353 0.0 0.0 0.11 0.33 0.33 96 1017.1
20260901172508 67 353 0.0 0.0 0.10 0.31 0.31 96 1017.1
20260901172009 67 353 0.0 0.0 0.05 0.26 0.26 96 1017.1
20260901171536 67 353 0.0 1.0 0.04 0.23 0.23 96 1017.1
20260901171010 67 353 0.0 1.0 0.04 0.22 0.22 95 1017.0
20260901170514 67 358 0.0 1.0 0.06 0.22 0.22 96 1017.1
20260901170028 67 278 0.0 1.0 0.06 0.22 0.22 95 1017.0
20260901165513 67 274 0.0 1.0 0.06 0.22 0.22 95 1016.8
20260901165004 67 23 0.0 1.0 0.06 0.22 0.22 95 1016.7
20260901164506 67 352 0.0 2.0 0.07 0.22 0.22 95 1016.7
20260901164003 67 344 0.0 2.0 0.07 0.22 0.22 95 1016.7
20260901163503 67 255 0.0 2.0 0.07 0.22 0.22 95 1016.4
20260901163010 67 335 0.0 1.0 0.07 0.22 0.22 96 1016.6
20260901162503 67 3 0.0 3.0 0.06 0.21 0.21 96 1016.5
20260901162004 66 22 1.0 3.0 0.06 0.21 0.21 95 1015.8
20260901161514 67 105 0.0 2.0 0.04 0.19 0.19 95 1016.3
20260901161006 67 19 0.0 0.0 0.03 0.18 0.18 95 1017.0
20260901160510 67 20 0.0 0.0 0.01 0.16 0.16 95 1017.1
20260901160037 67 28 0.0 0.0 0.01 0.16 0.16 95 1017.1
20260901155512 67 28 0.0 0.0 0.01 0.16 0.16 95 1017.1
20260901155012 67 102 0.0 0.0 0.01 0.16 0.16 95 1017.0
20260901154534 67 102 0.0 0.0 0.00 0.15 0.15 95 1016.9
20260901154012 67 110 0.0 0.0 0.00 0.15 0.15 95 1016.7
20260901153514 68 115 0.0 0.0 0.00 0.15 0.15 95 1016.6
20260901153007 67 223 0.0 0.0 0.00 0.15 0.15 94 1016.8
20260901152504 67 223 0.0 0.0 0.00 0.15 0.15 94 1016.8
20260901152009 67 222 0.0 0.0 0.00 0.15 0.15 94 1016.8
20260901151511 67 217 0.0 0.0 0.00 0.15 0.15 94 1016.8
20260901151008 67 209 0.0 0.0 0.01 0.15 0.15 94 1016.8
20260901150507 68 181 0.0 0.0 0.01 0.15 0.15 95 1016.6
20260901150021 67 169 0.0 2.0 0.01 0.15 0.15 95 1016.6
20260901145507 67 227 0.0 4.0 0.01 0.15 0.15 95 1016.6
20260901145008 67 220 0.0 4.0 0.01 0.15 0.15 96 1016.6
20260901144536 67 256 0.0 0.0 0.01 0.15 0.15 97 1016.6
20260901144011 67 18 0.0 0.0 0.01 0.15 0.15 97 1016.5
20260901143514 66 18 0.0 0.0 0.01 0.15 0.15 96 1016.7
20260901143030 66 18 0.0 0.0 0.01 0.15 0.15 97 1016.8
20260901142513 66 18 0.0 0.0 0.01 0.15 0.15 97 1017.1
20260901142016 66 18 0.0 0.0 0.01 0.15 0.15 96 1017.2
20260901141508 66 18 0.0 0.0 0.01 0.15 0.15 96 1017.4
20260901141004 66 18 0.0 0.0 0.00 0.14 0.14 96 1017.4
20260901140504 66 349 0.0 0.0 0.00 0.14 0.14 97 1017.5
20260901140014 66 349 0.0 0.0 0.00 0.14 0.14 97 1017.5
20260901135509 66 349 0.0 0.0 0.00 0.14 0.14 97 1017.5
20260901135011 66 347 0.0 0.0 0.00 0.14 0.14 97 1017.5
20260901134526 66 351 0.0 0.0 0.00 0.14 0.14 97 1017.5
20260901134013 66 356 0.0 0.0 0.00 0.14 0.14 97 1017.4
20260901133510 66 356 0.0 0.0 0.00 0.14 0.14 97 1017.4
20260901133027 66 356 0.0 0.0 0.01 0.14 0.14 97 1017.5
20260901132514 66 351 0.0 0.0 0.01 0.14 0.14 97 1017.6
20260901132014 66 351 0.0 0.0 0.01 0.14 0.14 97 1017.5
20260901131532 66 351 0.0 0.0 0.01 0.14 0.14 97 1017.4
20260901131015 66 351 0.0 0.0 0.01 0.14 0.14 97 1017.3
20260901130521 66 351 0.0 0.0 0.01 0.14 0.14 97 1017.5
20260901130010 66 351 0.0 0.0 0.01 0.14 0.14 97 1017.5
20260901125506 66 351 0.0 0.0 0.01 0.14 0.14 97 1017.7
20260901125010 65 351 0.0 0.0 0.01 0.14 0.14 97 1017.9
20260901124522 65 351 0.0 0.0 0.01 0.14 0.14 97 1017.9
20260901124011 65 351 0.0 0.0 0.02 0.14 0.14 97 1018.0
20260901123510 65 359 0.0 0.0 0.04 0.14 0.14 97 1017.9
20260901123038 65 346 0.0 0.0 0.04 0.13 0.13 97 1017.8
20260901122512 65 346 0.0 0.0 0.04 0.13 0.13 97 1017.7
20260901122014 65 357 0.0 0.0 0.05 0.13 0.13 97 1017.6
20260901121528 65 357 0.0 0.0 0.06 0.13 0.13 97 1017.5
20260901121015 65 357 0.0 0.0 0.08 0.13 0.13 97 1017.6
20260901120515 65 357 0.0 0.0 0.09 0.13 0.13 97 1017.7
20260901120044 65 357 0.0 0.0 0.10 0.13 0.13 97 1017.7
20260901115516 65 354 0.0 2.0 0.10 0.13 0.13 97 1017.6
20260901115016 65 349 0.0 3.0 0.10 0.13 0.13 97 1017.7
20260901114538 65 349 1.0 3.0 0.10 0.13 0.13 97 1017.8
20260901114008 65 327 0.0 0.0 0.10 0.12 0.12 97 1017.8
20260901113508 65 164 0.0 0.0 0.09 0.10 0.10 97 1017.8
20260901113027 65 164 0.0 0.0 0.08 0.09 0.09 97 1017.6
20260901112512 65 163 0.0 0.0 0.08 0.09 0.09 96 1017.4
20260901112011 65 163 0.0 0.0 0.07 0.08 0.08 96 1017.1
20260901111531 65 164 0.0 0.0 0.06 0.07 0.07 96 1017.5
20260901111011 65 164 0.0 0.0 0.04 0.05 0.05 96 1017.2
20260901110511 65 164 0.0 0.0 0.03 0.04 0.04 96 1017.0
20260901110028 65 164 0.0 0.0 0.02 0.03 0.03 96 1017.2
20260901105517 65 164 0.0 0.0 0.02 0.03 0.03 96 1017.4
20260901105014 65 163 0.0 0.0 0.02 0.03 0.03 96 1017.4
20260901104533 65 164 0.0 0.0 0.03 0.03 0.03 96 1017.4
20260901104018 65 164 0.0 0.0 0.02 0.02 0.02 96 1017.3
20260901103516 65 164 0.0 0.0 0.01 0.01 0.01 96 1017.2
20260901103034 65 164 0.0 0.0 0.01 0.01 0.01 96 1017.0
20260901102507 65 164 0.0 0.0 0.01 0.01 0.01 96 1017.2
20260901102009 65 164 0.0 0.0 0.01 0.01 0.01 96 1017.3
20260901101524 65 164 0.0 0.0 0.01 0.01 0.01 95 1017.2
20260901101003 65 164 0.0 0.0 0.01 0.01 0.01 95 1017.0
20260901100503 65 164 0.0 0.0 0.01 0.01 0.01 95 1016.8
20260901100003 65 164 0.0 0.0 0.01 0.01 0.01 95 1016.8
20260901095504 65 163 0.0 0.0 0.01 0.01 0.01 95 1016.7
20260901095004 65 164 0.0 0.0 0.01 0.01 0.01 95 1016.8
20260901094513 65 163 0.0 0.0 0.00 0.00 0.00 95 1016.7
20260901094005 65 163 0.0 0.0 0.00 0.00 0.00 95 1016.8
20260901093504 65 163 0.0 0.0 0.00 0.00 0.00 95 1017.0
20260901093014 65 163 0.0 0.0 0.00 0.00 0.00 95 1017.1
20260901092506 65 163 0.0 0.0 0.00 0.00 0.00 95 1017.2
20260901092008 65 163 0.0 0.0 0.00 0.00 0.00 95 1017.1
20260901091525 65 163 0.0 0.0 0.00 0.00 0.00 95 1017.1
20260901091009 65 163 0.0 0.0 0.00 0.00 0.00 95 1017.1
20260901090509 65 163 0.0 0.0 0.00 0.00 0.00 95 1017.0
20260901090025 65 163 0.0 0.0 0.00 0.00 0.00 95 1017.1
20260901085511 65 164 0.0 0.0 0.00 0.00 0.00 95 1017.1
20260901085008 65 164 0.0 0.0 0.00 0.00 0.00 95 1017.2
20260901084508 65 164 0.0 0.0 0.00 0.00 0.00 95 1017.2
20260901084003 65 164 0.0 0.0 0.00 0.00 0.00 95 1017.2
20260901083505 65 164 0.0 0.0 0.00 0.00 0.00 95 1017.2
20260901083012 65 164 0.0 0.0 0.00 0.00 0.00 95 1017.2
20260901082506 65 164 0.0 0.0 0.00 0.00 0.00 95 1017.2
20260901082006 65 164 0.0 0.0 0.00 0.00 0.00 95 1017.2
20260901081517 65 164 0.0 0.0 0.00 0.00 0.00 95 1017.2
20260901081008 65 164 0.0 0.0 0.00 0.00 0.00 95 1017.0
20260901080509 65 164 0.0 0.0 0.00 0.00 0.00 95 1017.0
20260901080024 65 164 0.0 0.0 0.00 0.00 0.00 95 1017.1
20260901075510 65 164 0.0 1.0 0.00 0.00 0.00 94 1016.8
20260901075012 65 164 0.0 2.0 0.00 0.00 0.00 94 1016.7
20260901074528 65 206 1.0 3.0 0.00 0.00 0.00 94 1017.0
20260901074013 65 217 2.0 3.0 0.00 0.00 0.00 94 1017.2
20260901073504 65 210 1.0 4.0 0.00 0.00 0.00 93 1017.4
20260901073013 65 217 2.0 6.0 0.00 0.00 0.00 93 1017.3
20260901072506 65 202 3.0 6.0 0.00 0.00 0.00 93 1017.4
20260901072007 65 195 1.0 3.0 0.00 0.00 0.00 92 1017.4
20260901071513 65 204 0.0 1.0 0.00 0.00 0.00 92 1017.5
20260901071006 66 167 0.0 2.0 0.00 0.00 0.00 92 1017.7
20260901070508 66 207 0.0 3.0 0.00 0.00 0.00 92 1017.8
20260901070021 66 170 1.0 4.0 0.00 0.00 0.00 91 1017.8
20260901065514 66 150 2.0 4.0 0.00 0.00 0.00 91 1017.9
20260901065011 66 210 2.0 4.0 0.00 0.00 0.00 91 1017.8
20260901064528 66 205 3.0 4.0 0.00 0.00 0.00 90 1017.9
20260901064016 66 162 1.0 4.0 0.00 0.00 0.00 90 1017.9
20260901063515 66 221 1.0 4.0 0.00 0.00 0.00 89 1017.9
20260901063036 66 186 1.0 5.0 0.00 0.00 0.00 89 1017.9
20260901062517 67 191 3.0 5.0 0.00 0.00 0.00 88 1017.9
20260901062004 67 205 0.0 3.0 0.00 0.00 0.00 88 1017.9
20260901061518 67 243 0.0 3.0 0.00 0.00 0.00 88 1017.9
20260901061007 67 229 1.0 3.0 0.00 0.00 0.00 88 1017.9
20260901060506 67 244 1.0 3.0 0.00 0.00 0.00 87 1017.8
20260901060015 67 239 0.0 3.0 0.00 0.00 0.00 87 1017.8
20260901055510 67 248 0.0 3.0 0.00 0.00 0.00 86 1017.8
20260901055010 67 206 1.0 3.0 0.00 0.00 0.00 86 1017.9
20260901054526 67 226 0.0 1.0 0.00 0.00 0.00 86 1018.0
20260901054012 67 226 0.0 0.0 0.00 0.00 0.00 86 1018.1
20260901053516 68 226 0.0 2.0 0.00 0.00 0.00 86 1018.1
20260901053028 68 226 0.0 2.0 0.00 0.00 0.00 85 1018.1